EWG4762 EDDB-ESSA

Flight info

Callsign EWG4762
Flight time N/A
Altitude 38000
Route GERGA M725 RENKI Y89 USEDU DCT BANUB DCT POKEN DCT VIBAR Z227 NILUG
Aircraft A20N/M-SDE2E3FGHIRWXY/LB1

Departure

Time 2026-05-01 08:55
Airport Berlin Brandenburg Airport (EDDB)

Arrival

Time N/A
Airport Stockholm-Arlanda Airport (ESSA)
Time Latitude Longitude Altitude Speed Heading
2026-05-01 08:41 52.36113 13.51236 154 ft 0 kts 339°
2026-05-01 08:47 52.36100 13.51243 154 ft 2 kts 338°
2026-05-01 08:47 52.36086 13.51252 153 ft 2 kts 339°
2026-05-01 08:48 52.36072 13.51261 153 ft 2 kts 339°
2026-05-01 08:48 52.36058 13.51270 153 ft 2 kts 350°
2026-05-01 08:48 52.36043 13.51269 152 ft 2 kts 12°
2026-05-01 08:48 52.36029 13.51260 152 ft 2 kts 34°
2026-05-01 08:49 52.36019 13.51244 152 ft 2 kts 54°
2026-05-01 08:49 52.36015 13.51234 152 ft 0 kts 65°
2026-05-01 08:49 52.36013 13.51224 152 ft 1 kts 70°
2026-05-01 08:49 52.36012 13.51221 152 ft 0 kts 69°
2026-05-01 08:51 52.36019 13.51252 152 ft 6 kts 69°
2026-05-01 08:51 52.36034 13.51317 152 ft 8 kts 68°
2026-05-01 08:51 52.36058 13.51418 152 ft 11 kts 68°
2026-05-01 08:51 52.36090 13.51550 152 ft 12 kts 69°
2026-05-01 08:52 52.36123 13.51692 153 ft 13 kts 68°
2026-05-01 08:52 52.36115 13.51838 153 ft 14 kts 141°
2026-05-01 08:52 52.36093 13.51974 153 ft 14 kts 68°
2026-05-01 08:52 52.36087 13.52124 153 ft 14 kts 151°
2026-05-01 08:53 52.35990 13.52191 153 ft 15 kts 156°
2026-05-01 08:53 52.35887 13.52252 153 ft 15 kts 161°
2026-05-01 08:53 52.35815 13.52202 153 ft 5 kts 249°
2026-05-01 08:53 52.35814 13.52194 153 ft 0 kts 249°
2026-05-01 08:55 52.35807 13.52166 153 ft 20 kts 249°
2026-05-01 08:55 52.35648 13.51491 152 ft 104 kts 248°
2026-05-01 08:55 52.35304 13.50050 249 ft 159 kts 249°
2026-05-01 08:55 52.34914 13.48360 959 ft 161 kts 259°
2026-05-01 08:56 52.34846 13.46589 1769 ft 161 kts 269°
2026-05-01 08:56 52.34499 13.44817 2381 ft 175 kts 234°
2026-05-01 08:56 52.33620 13.43337 2872 ft 194 kts 223°
2026-05-01 08:56 52.32584 13.41783 3404 ft 213 kts 223°
2026-05-01 08:57 52.31325 13.39764 4018 ft 238 kts 225°
2026-05-01 08:57 52.30154 13.37748 4863 ft 247 kts 226°
2026-05-01 08:57 52.28995 13.35680 5781 ft 252 kts 227°
2026-05-01 08:58 52.27818 13.33549 6696 ft 257 kts 225°
2026-05-01 08:58 52.26402 13.31781 7390 ft 268 kts 197°
2026-05-01 08:58 52.24563 13.31509 8006 ft 275 kts 162°
2026-05-01 08:58 52.22919 13.33002 8748 ft 274 kts 127°
2026-05-01 08:59 52.22120 13.35669 9698 ft 267 kts 94°
2026-05-01 08:59 52.22371 13.38590 10685 ft 265 kts 66°
2026-05-01 08:59 52.23396 13.41112 11399 ft 278 kts 47°
2026-05-01 08:59 52.24795 13.43418 11946 ft 296 kts 46°
2026-05-01 09:00 52.26271 13.45860 12603 ft 309 kts 47°
2026-05-01 09:00 52.27774 13.48349 13505 ft 312 kts 47°
2026-05-01 09:00 52.29284 13.50855 14429 ft 315 kts 47°
2026-05-01 09:00 52.30818 13.53408 15301 ft 318 kts 46°
2026-05-01 09:01 52.32373 13.55999 16153 ft 322 kts 46°
2026-05-01 09:01 52.33927 13.58590 16978 ft 326 kts 46°
2026-05-01 09:01 52.34449 13.59460 17250 ft 327 kts 46°
2026-05-01 09:01 52.37083 13.63855 18563 ft 333 kts 46°
2026-05-01 09:02 52.38488 13.66201 19240 ft 336 kts 46°
2026-05-01 09:02 52.40115 13.68921 19988 ft 340 kts 46°
2026-05-01 09:02 52.41780 13.71707 20718 ft 344 kts 46°
2026-05-01 09:02 52.43454 13.74514 21443 ft 348 kts 46°
2026-05-01 09:03 52.45146 13.77355 22152 ft 352 kts 46°
2026-05-01 09:03 52.46840 13.80204 22844 ft 355 kts 46°
2026-05-01 09:03 52.48563 13.83105 23513 ft 359 kts 46°
2026-05-01 09:03 52.50315 13.86061 24172 ft 363 kts 46°
2026-05-01 09:04 52.52083 13.89047 24793 ft 367 kts 46°
2026-05-01 09:04 52.53856 13.92047 25393 ft 370 kts 46°
2026-05-01 09:04 52.55652 13.95085 25943 ft 375 kts 46°
2026-05-01 09:04 52.57456 13.98119 26486 ft 378 kts 44°
2026-05-01 09:05 52.59610 14.00637 26961 ft 384 kts 26°
2026-05-01 09:05 52.62178 14.01894 27483 ft 390 kts
2026-05-01 09:05 52.64896 14.01848 27980 ft 397 kts 356°
2026-05-01 09:05 52.67625 14.01262 28492 ft 400 kts 355°
2026-05-01 09:06 52.70383 14.00667 28965 ft 403 kts 355°
2026-05-01 09:06 52.73165 14.00070 29414 ft 406 kts 355°
2026-05-01 09:06 52.76006 13.99462 29877 ft 409 kts 355°
2026-05-01 09:06 52.78827 13.98858 30373 ft 410 kts 355°
2026-05-01 09:07 52.81624 13.98259 30981 ft 408 kts 355°
2026-05-01 09:07 52.84408 13.97664 31590 ft 406 kts 355°
2026-05-01 09:07 52.87223 13.97116 32141 ft 404 kts 357°
2026-05-01 09:07 52.89991 13.96806 32638 ft 403 kts
2026-05-01 09:08 52.92801 13.96753 33135 ft 401 kts
2026-05-01 09:08 52.95554 13.96954 33602 ft 400 kts
2026-05-01 09:08 52.98317 13.97380 34062 ft 399 kts
2026-05-01 09:08 53.01075 13.97880 34506 ft 399 kts
2026-05-01 09:09 53.03825 13.98392 34922 ft 398 kts
2026-05-01 09:09 53.05663 13.98736 35207 ft 398 kts
2026-05-01 09:09 53.09229 13.99402 35744 ft 397 kts
2026-05-01 09:09 53.11751 13.99872 36122 ft 396 kts
2026-05-01 09:10 53.14487 14.00382 36518 ft 396 kts
2026-05-01 09:10 53.17205 14.00888 36868 ft 396 kts
2026-05-01 09:10 53.19949 14.01400 37160 ft 397 kts
2026-05-01 09:10 53.22704 14.01914 37418 ft 398 kts
2026-05-01 09:11 53.25458 14.02428 37660 ft 400 kts
2026-05-01 09:11 53.28220 14.02944 37886 ft 402 kts
2026-05-01 09:11 53.31027 14.03468 38112 ft 403 kts
2026-05-01 09:11 53.33792 14.03987 38312 ft 405 kts
2026-05-01 09:12 53.39125 14.04987 38382 ft 416 kts
2026-05-01 09:12 53.44820 14.06060 38376 ft 425 kts
2026-05-01 09:13 53.50716 14.07173 38369 ft 425 kts
2026-05-01 09:13 53.56563 14.08083 38367 ft 427 kts
2026-05-01 09:14 53.62493 14.08000 38368 ft 428 kts 357°
2026-05-01 09:14 53.68419 14.06804 38378 ft 429 kts 351°
2026-05-01 09:15 53.74234 14.04732 38387 ft 430 kts 348°
2026-05-01 09:15 53.80045 14.02505 38391 ft 430 kts 348°
2026-05-01 09:16 53.82939 14.01395 38392 ft 430 kts 348°
2026-05-01 09:17 53.94613 13.98957 38391 ft 428 kts
2026-05-01 09:17 54.03310 14.01783 38392 ft 427 kts 19°
2026-05-01 09:18 54.11669 14.07119 38407 ft 427 kts 21°
2026-05-01 09:19 54.19962 14.12524 38386 ft 427 kts 21°
2026-05-01 09:20 54.28229 14.17914 38392 ft 427 kts 21°
2026-05-01 09:21 54.36369 14.23244 38379 ft 427 kts 21°
2026-05-01 09:21 54.46075 14.29645 38377 ft 427 kts 21°
2026-05-01 09:22 54.56955 14.37654 38373 ft 426 kts 23°
2026-05-01 09:23 54.65086 14.43721 38369 ft 427 kts 22°
2026-05-01 09:24 54.73229 14.49822 38357 ft 428 kts 22°
2026-05-01 09:25 54.84058 14.57684 38357 ft 428 kts 19°
2026-05-01 09:26 54.92437 14.62834 38363 ft 427 kts 18°
2026-05-01 09:26 55.00801 14.67988 38368 ft 427 kts 19°
2026-05-01 09:27 55.09162 14.73176 38372 ft 427 kts 19°
2026-05-01 09:28 55.14778 14.76675 38370 ft 427 kts 19°
2026-05-01 09:28 55.17556 14.78410 38367 ft 427 kts 19°
2026-05-01 09:29 55.28220 14.85094 38350 ft 427 kts 19°
2026-05-01 09:30 55.36580 14.90365 38344 ft 427 kts 19°
2026-05-01 09:30 55.44914 14.95640 38341 ft 427 kts 19°
2026-05-01 09:31 55.50513 14.99196 38333 ft 427 kts 19°
2026-05-01 09:32 55.58852 15.04514 38331 ft 427 kts 19°
2026-05-01 09:32 55.67213 15.09871 38326 ft 427 kts 19°
2026-05-01 09:33 55.72812 15.13471 38331 ft 427 kts 19°
2026-05-01 09:34 55.81153 15.18857 38332 ft 427 kts 19°
2026-05-01 09:34 55.89485 15.24259 38329 ft 426 kts 19°
2026-05-01 09:35 55.97701 15.29611 38326 ft 427 kts 19°
2026-05-01 09:36 56.03209 15.33213 38322 ft 427 kts 19°
2026-05-01 09:36 56.08777 15.36866 38315 ft 427 kts 19°
2026-05-01 09:37 56.14336 15.40524 38310 ft 426 kts 19°
2026-05-01 09:37 56.22670 15.46028 38313 ft 426 kts 19°
2026-05-01 09:38 56.30982 15.51543 38297 ft 426 kts 19°
2026-05-01 09:39 56.39287 15.57080 38301 ft 425 kts 19°
2026-05-01 09:39 56.43906 15.60169 38299 ft 425 kts 19°
2026-05-01 09:40 56.52204 15.65742 38295 ft 425 kts 19°
2026-05-01 09:41 56.57745 15.69478 38283 ft 425 kts 19°
2026-05-01 09:41 56.66026 15.75083 38276 ft 425 kts 19°
2026-05-01 09:42 56.71569 15.78849 38276 ft 424 kts 19°
2026-05-01 09:43 56.82594 15.86376 38269 ft 424 kts 19°
2026-05-01 09:43 56.88099 15.90151 38261 ft 424 kts 19°
2026-05-01 09:44 56.94055 15.94250 38256 ft 424 kts 19°
2026-05-01 09:45 56.99576 15.98062 38255 ft 424 kts 19°
2026-05-01 09:45 57.07841 16.03793 38250 ft 424 kts 19°
2026-05-01 09:46 57.13099 16.07452 38256 ft 423 kts 19°
2026-05-01 09:46 57.18673 16.11342 38258 ft 424 kts 19°
2026-05-01 09:47 57.24168 16.15193 38252 ft 424 kts 19°
2026-05-01 09:47 57.29679 16.19068 38238 ft 424 kts 19°
2026-05-01 09:48 57.35175 16.22942 38233 ft 424 kts 19°
2026-05-01 09:48 57.40679 16.26838 38232 ft 424 kts 19°
2026-05-01 09:49 57.46181 16.30746 38225 ft 424 kts 18°
2026-05-01 09:49 57.51653 16.34644 38222 ft 425 kts 18°
2026-05-01 09:50 57.55346 16.37397 38226 ft 426 kts 21°
2026-05-01 09:50 57.58022 16.39738 38227 ft 427 kts 24°